Year,Month,Day,Hour,Minute,Value (Times are PST for temperature in C)
2015,07,05,00,00,23.90
2015,07,05,00,01,23.90
2015,07,05,00,02,24.00
2015,07,05,00,03,24.00
2015,07,05,00,04,24.00
2015,07,05,00,05,24.10
2015,07,05,00,06,24.10
2015,07,05,00,07,24.00
2015,07,05,00,08,24.00
2015,07,05,00,09,24.00
2015,07,05,00,10,24.00
2015,07,05,00,11,24.00
2015,07,05,00,12,24.00
2015,07,05,00,13,24.00
2015,07,05,00,14,24.00
2015,07,05,00,15,24.00
2015,07,05,00,16,24.00
2015,07,05,00,17,23.90
2015,07,05,00,18,23.90
2015,07,05,00,19,23.90
2015,07,05,00,20,23.90
2015,07,05,00,21,23.90
2015,07,05,00,22,24.00
2015,07,05,00,23,24.00
2015,07,05,00,24,24.00
2015,07,05,00,25,24.10
2015,07,05,00,26,24.10
2015,07,05,00,27,24.10
2015,07,05,00,28,24.10
2015,07,05,00,29,24.10
2015,07,05,00,30,24.10
2015,07,05,00,31,24.10
2015,07,05,00,32,24.00
2015,07,05,00,33,24.00
2015,07,05,00,34,24.00
2015,07,05,00,35,24.10
2015,07,05,00,36,24.10
2015,07,05,00,37,24.10
2015,07,05,00,38,24.10
2015,07,05,00,39,24.10
2015,07,05,00,40,24.10
2015,07,05,00,41,24.10
2015,07,05,00,42,24.10
2015,07,05,00,43,24.00
2015,07,05,00,44,24.10
2015,07,05,00,45,24.10
2015,07,05,00,46,24.00
2015,07,05,00,47,24.00
2015,07,05,00,48,24.00
2015,07,05,00,49,24.00
2015,07,05,00,50,24.00
2015,07,05,00,51,24.00
2015,07,05,00,52,24.00
2015,07,05,00,53,24.10
2015,07,05,00,54,24.10
2015,07,05,00,55,24.20
2015,07,05,00,56,24.20
2015,07,05,00,57,24.10
2015,07,05,00,58,24.10
2015,07,05,00,59,24.10
2015,07,05,01,00,24.20
2015,07,05,01,01,24.20
2015,07,05,01,02,24.20
2015,07,05,01,03,24.20
2015,07,05,01,04,24.20
2015,07,05,01,05,24.20
2015,07,05,01,06,24.20
2015,07,05,01,07,24.20
2015,07,05,01,08,24.20
2015,07,05,01,09,24.30
2015,07,05,01,10,24.30
2015,07,05,01,11,24.30
2015,07,05,01,12,24.40
2015,07,05,01,13,24.40
2015,07,05,01,14,24.40
2015,07,05,01,15,24.40
2015,07,05,01,16,24.40
2015,07,05,01,17,24.40
2015,07,05,01,18,24.40
2015,07,05,01,19,24.40
2015,07,05,01,20,24.40
2015,07,05,01,21,24.50
2015,07,05,01,22,24.50
2015,07,05,01,23,24.50
2015,07,05,01,24,24.50
2015,07,05,01,25,24.50
2015,07,05,01,26,24.50
2015,07,05,01,27,24.50
2015,07,05,01,28,24.50
2015,07,05,01,29,24.60
2015,07,05,01,30,24.60
2015,07,05,01,31,24.60
2015,07,05,01,32,24.60
2015,07,05,01,33,24.70
2015,07,05,01,34,24.70
2015,07,05,01,35,24.80
2015,07,05,01,36,24.80
2015,07,05,01,37,24.80
2015,07,05,01,38,24.80
2015,07,05,01,39,24.80
2015,07,05,01,40,24.80
2015,07,05,01,41,24.80
2015,07,05,01,42,24.70
2015,07,05,01,43,24.70
2015,07,05,01,44,24.70
2015,07,05,01,45,24.70
2015,07,05,01,46,24.70
2015,07,05,01,47,24.70
2015,07,05,01,48,24.70
2015,07,05,01,49,24.70
2015,07,05,01,50,24.70
2015,07,05,01,51,24.70
2015,07,05,01,52,24.70
2015,07,05,01,53,24.70
2015,07,05,01,54,24.70
2015,07,05,01,55,24.70
2015,07,05,01,56,24.60
2015,07,05,01,57,24.60
2015,07,05,01,58,24.60
2015,07,05,01,59,24.70
2015,07,05,02,00,24.70
2015,07,05,02,01,24.70
2015,07,05,02,02,24.70
2015,07,05,02,03,24.70
2015,07,05,02,04,24.70
2015,07,05,02,05,24.70
2015,07,05,02,06,24.70
2015,07,05,02,07,24.70
2015,07,05,02,08,24.70
2015,07,05,02,09,24.70
2015,07,05,02,10,24.70
2015,07,05,02,11,24.70
2015,07,05,02,12,24.70
2015,07,05,02,13,24.70
2015,07,05,02,14,24.70
2015,07,05,02,15,24.60
2015,07,05,02,16,24.60
2015,07,05,02,17,24.60
2015,07,05,02,18,24.60
2015,07,05,02,19,24.60
2015,07,05,02,20,24.60
2015,07,05,02,21,24.60
2015,07,05,02,22,24.60
2015,07,05,02,23,24.60
2015,07,05,02,24,24.70
2015,07,05,02,25,24.70
2015,07,05,02,26,24.70
2015,07,05,02,27,24.60
2015,07,05,02,28,24.60
2015,07,05,02,29,24.60
2015,07,05,02,30,24.60
2015,07,05,02,31,24.60
2015,07,05,02,32,24.60
2015,07,05,02,33,24.60
2015,07,05,02,34,24.60
2015,07,05,02,35,24.50
2015,07,05,02,36,24.50
2015,07,05,02,37,24.50
2015,07,05,02,38,24.50
2015,07,05,02,39,24.50
2015,07,05,02,40,24.50
2015,07,05,02,41,24.50
2015,07,05,02,42,24.50
2015,07,05,02,43,24.50
2015,07,05,02,44,24.40
2015,07,05,02,45,24.50
2015,07,05,02,46,24.50
2015,07,05,02,47,24.50
2015,07,05,02,48,24.50
2015,07,05,02,49,24.50
2015,07,05,02,50,24.50
2015,07,05,02,51,24.40
2015,07,05,02,52,24.40
2015,07,05,02,53,24.40
2015,07,05,02,54,24.40
2015,07,05,02,55,24.40
2015,07,05,02,56,24.50
2015,07,05,02,57,24.50
2015,07,05,02,58,24.50
2015,07,05,02,59,24.50
2015,07,05,03,00,24.40
2015,07,05,03,01,24.40
2015,07,05,03,02,24.40
2015,07,05,03,03,24.40
2015,07,05,03,04,24.40
2015,07,05,03,05,24.40
2015,07,05,03,06,24.40
2015,07,05,03,07,24.40
2015,07,05,03,08,24.40
2015,07,05,03,09,24.40
2015,07,05,03,10,24.40
2015,07,05,03,11,24.40
2015,07,05,03,12,24.40
2015,07,05,03,13,24.40
2015,07,05,03,14,24.40
2015,07,05,03,15,24.40
2015,07,05,03,16,24.40
2015,07,05,03,17,24.40
2015,07,05,03,18,24.40
2015,07,05,03,19,24.30
2015,07,05,03,20,24.30
2015,07,05,03,21,24.20
2015,07,05,03,22,24.20
2015,07,05,03,23,24.20
2015,07,05,03,24,24.20
2015,07,05,03,25,24.20
2015,07,05,03,26,24.10
2015,07,05,03,27,24.10
2015,07,05,03,28,24.10
2015,07,05,03,29,24.10
2015,07,05,03,30,24.00
2015,07,05,03,31,24.00
2015,07,05,03,32,24.00
2015,07,05,03,33,24.00
2015,07,05,03,34,24.00
2015,07,05,03,35,24.00
2015,07,05,03,36,24.00
2015,07,05,03,37,24.00
2015,07,05,03,38,24.00
2015,07,05,03,39,24.10
2015,07,05,03,40,24.10
2015,07,05,03,41,24.10
2015,07,05,03,42,24.10
2015,07,05,03,43,24.10
2015,07,05,03,44,24.10
2015,07,05,03,45,24.10
2015,07,05,03,46,24.10
2015,07,05,03,47,24.10
2015,07,05,03,48,24.10
2015,07,05,03,49,24.10
2015,07,05,03,50,24.10
2015,07,05,03,51,24.10
2015,07,05,03,52,24.10
2015,07,05,03,53,24.10
2015,07,05,03,54,24.10
2015,07,05,03,55,24.10
2015,07,05,03,56,24.10
2015,07,05,03,57,24.00
2015,07,05,03,58,24.00
2015,07,05,03,59,24.00
2015,07,05,04,00,24.10
2015,07,05,04,01,24.10
2015,07,05,04,02,24.10
2015,07,05,04,03,24.10
2015,07,05,04,04,24.10
2015,07,05,04,05,24.10
2015,07,05,04,06,24.10
2015,07,05,04,07,24.10
2015,07,05,04,08,24.00
2015,07,05,04,09,24.00
2015,07,05,04,10,24.00
2015,07,05,04,11,24.00
2015,07,05,04,12,24.00
2015,07,05,04,13,24.00
2015,07,05,04,14,24.00
2015,07,05,04,15,24.00
2015,07,05,04,16,24.00
2015,07,05,04,17,24.00
2015,07,05,04,18,24.00
2015,07,05,04,19,24.00
2015,07,05,04,20,24.00
2015,07,05,04,21,24.00
2015,07,05,04,22,24.00
2015,07,05,04,23,24.00
2015,07,05,04,24,23.90
2015,07,05,04,25,23.90
2015,07,05,04,26,24.00
2015,07,05,04,27,24.00
2015,07,05,04,28,24.00
2015,07,05,04,29,24.00
2015,07,05,04,30,24.00
2015,07,05,04,31,24.00
2015,07,05,04,32,24.00
2015,07,05,04,33,24.10
2015,07,05,04,34,24.10
2015,07,05,04,35,24.00
2015,07,05,04,36,24.00
2015,07,05,04,37,24.00
2015,07,05,04,38,24.00
2015,07,05,04,39,24.10
2015,07,05,04,40,24.10
2015,07,05,04,41,24.10
2015,07,05,04,42,24.10
2015,07,05,04,43,24.10
2015,07,05,04,44,24.10
2015,07,05,04,45,24.10
2015,07,05,04,46,24.10
2015,07,05,04,47,24.10
2015,07,05,04,48,24.10
2015,07,05,04,49,24.10
2015,07,05,04,50,24.10
2015,07,05,04,51,24.10
2015,07,05,04,52,24.00
2015,07,05,04,53,24.00
2015,07,05,04,54,24.00
2015,07,05,04,55,24.00
2015,07,05,04,56,24.00
2015,07,05,04,57,24.00
2015,07,05,04,58,24.00
2015,07,05,04,59,24.00
2015,07,05,05,00,24.00
2015,07,05,05,01,24.00
2015,07,05,05,02,24.00
2015,07,05,05,03,24.00
2015,07,05,05,04,24.00
2015,07,05,05,05,24.00
2015,07,05,05,06,24.00
2015,07,05,05,07,23.90
2015,07,05,05,08,23.90
2015,07,05,05,09,23.90
2015,07,05,05,10,23.90
2015,07,05,05,11,23.80
2015,07,05,05,12,23.80
2015,07,05,05,13,23.80
2015,07,05,05,14,23.80
2015,07,05,05,15,23.80
2015,07,05,05,16,23.80
2015,07,05,05,17,23.80
2015,07,05,05,18,23.80
2015,07,05,05,19,23.80
2015,07,05,05,20,23.80
2015,07,05,05,21,23.70
2015,07,05,05,22,23.60
2015,07,05,05,23,23.60
2015,07,05,05,24,23.50
2015,07,05,05,25,23.40
2015,07,05,05,26,23.40
2015,07,05,05,27,23.30
2015,07,05,05,28,23.20
2015,07,05,05,29,23.10
2015,07,05,05,30,23.00
2015,07,05,05,31,22.70
2015,07,05,05,32,22.40
2015,07,05,05,33,22.10
2015,07,05,05,34,21.90
2015,07,05,05,35,21.50
2015,07,05,05,36,21.20
2015,07,05,05,37,20.80
2015,07,05,05,38,20.40
2015,07,05,05,39,20.10
2015,07,05,05,40,19.70
2015,07,05,05,41,19.40
2015,07,05,05,42,19.10
2015,07,05,05,43,18.90
2015,07,05,05,44,18.80
2015,07,05,05,45,18.60
2015,07,05,05,46,18.50
2015,07,05,05,47,18.40
2015,07,05,05,48,18.40
2015,07,05,05,49,18.30
2015,07,05,05,50,18.30
2015,07,05,05,51,18.20
2015,07,05,05,52,18.10
2015,07,05,05,53,18.00
2015,07,05,05,54,17.90
2015,07,05,05,55,17.80
2015,07,05,05,56,17.70
2015,07,05,05,57,17.70
2015,07,05,05,58,17.60
2015,07,05,05,59,17.60
2015,07,05,06,00,17.50
2015,07,05,06,01,17.50
2015,07,05,06,02,17.40
2015,07,05,06,03,17.40
2015,07,05,06,04,17.40
2015,07,05,06,05,17.40
2015,07,05,06,06,17.40
2015,07,05,06,07,17.40
2015,07,05,06,08,17.40
2015,07,05,06,09,17.40
2015,07,05,06,10,17.40
2015,07,05,06,11,17.40
2015,07,05,06,12,17.30
2015,07,05,06,13,17.30
2015,07,05,06,14,17.30
2015,07,05,06,15,17.30
2015,07,05,06,16,17.30
2015,07,05,06,17,17.30
2015,07,05,06,18,17.30
2015,07,05,06,19,17.30
2015,07,05,06,20,17.30
2015,07,05,06,21,17.20
2015,07,05,06,22,17.20
2015,07,05,06,23,17.20
2015,07,05,06,24,17.20
2015,07,05,06,25,17.20
2015,07,05,06,26,17.20
2015,07,05,06,27,17.10
2015,07,05,06,28,17.10
2015,07,05,06,29,17.10
2015,07,05,06,30,17.10
2015,07,05,06,31,17.10
2015,07,05,06,32,17.10
2015,07,05,06,33,17.10
2015,07,05,06,34,17.00
2015,07,05,06,35,17.00
2015,07,05,06,36,16.90
2015,07,05,06,37,16.90
2015,07,05,06,38,16.90
2015,07,05,06,39,16.90
2015,07,05,06,40,16.80
2015,07,05,06,41,16.80
2015,07,05,06,42,16.80
2015,07,05,06,43,16.80
2015,07,05,06,44,16.80
2015,07,05,06,45,16.80
2015,07,05,06,46,16.80
2015,07,05,06,47,16.90
2015,07,05,06,48,16.90
2015,07,05,06,49,16.90
2015,07,05,06,50,16.90
2015,07,05,06,51,16.90
2015,07,05,06,52,16.90
2015,07,05,06,53,16.90
2015,07,05,06,54,16.90
2015,07,05,06,55,17.00
2015,07,05,06,56,17.00
2015,07,05,06,57,17.00
2015,07,05,06,58,17.00
2015,07,05,06,59,17.00
2015,07,05,07,00,17.10
2015,07,05,07,01,17.10
2015,07,05,07,02,17.10
2015,07,05,07,03,17.10
2015,07,05,07,04,17.10
2015,07,05,07,05,17.10
2015,07,05,07,06,17.10
2015,07,05,07,07,17.10
2015,07,05,07,08,17.10
2015,07,05,07,09,17.10
2015,07,05,07,10,17.10
2015,07,05,07,11,17.10
2015,07,05,07,12,17.10
2015,07,05,07,13,17.10
2015,07,05,07,14,17.10
2015,07,05,07,15,17.10
2015,07,05,07,16,17.20
2015,07,05,07,17,17.20
2015,07,05,07,18,17.20
2015,07,05,07,19,17.20
2015,07,05,07,20,17.20
2015,07,05,07,21,17.20
2015,07,05,07,22,17.20
2015,07,05,07,23,17.10
2015,07,05,07,24,17.10
2015,07,05,07,25,17.10
2015,07,05,07,26,17.10
2015,07,05,07,27,17.20
2015,07,05,07,28,17.20
2015,07,05,07,29,17.20
2015,07,05,07,30,17.20
2015,07,05,07,31,17.20
2015,07,05,07,32,17.20
2015,07,05,07,33,17.20
2015,07,05,07,34,17.20
2015,07,05,07,35,17.20
2015,07,05,07,36,17.20
2015,07,05,07,37,17.20
2015,07,05,07,38,17.20
2015,07,05,07,39,17.20
2015,07,05,07,40,17.20
2015,07,05,07,41,17.20
2015,07,05,07,42,17.30
2015,07,05,07,43,17.30
2015,07,05,07,44,17.30
2015,07,05,07,45,17.30
2015,07,05,07,46,17.40
2015,07,05,07,47,17.40
2015,07,05,07,48,17.40
2015,07,05,07,49,17.50
2015,07,05,07,50,17.50
2015,07,05,07,51,17.50
2015,07,05,07,52,17.60
2015,07,05,07,53,17.60
2015,07,05,07,54,17.60
2015,07,05,07,55,17.60
2015,07,05,07,56,17.60
2015,07,05,07,57,17.60
2015,07,05,07,58,17.70
2015,07,05,07,59,17.70
2015,07,05,08,00,17.70
2015,07,05,08,01,17.70
2015,07,05,08,02,17.70
2015,07,05,08,03,17.80
2015,07,05,08,04,17.80
2015,07,05,08,05,17.80
2015,07,05,08,06,17.80
2015,07,05,08,07,17.90
2015,07,05,08,08,17.90
2015,07,05,08,09,18.00
2015,07,05,08,10,18.00
2015,07,05,08,11,18.10
2015,07,05,08,12,18.10
2015,07,05,08,13,18.10
2015,07,05,08,14,18.10
2015,07,05,08,15,18.10
2015,07,05,08,16,18.20
2015,07,05,08,17,18.20
2015,07,05,08,18,18.20
2015,07,05,08,19,18.30
2015,07,05,08,20,18.30
2015,07,05,08,21,18.30
2015,07,05,08,22,18.40
2015,07,05,08,23,18.40
2015,07,05,08,24,18.40
2015,07,05,08,25,18.40
2015,07,05,08,26,18.40
2015,07,05,08,27,18.40
2015,07,05,08,28,18.40
2015,07,05,08,29,18.50
2015,07,05,08,30,18.50
2015,07,05,08,31,18.50
2015,07,05,08,32,18.60
2015,07,05,08,33,18.60
2015,07,05,08,34,18.70
2015,07,05,08,35,18.70
2015,07,05,08,36,18.80
2015,07,05,08,37,18.80
2015,07,05,08,38,18.90
2015,07,05,08,39,18.90
2015,07,05,08,40,19.00
2015,07,05,08,41,19.00
2015,07,05,08,42,19.10
2015,07,05,08,43,19.10
2015,07,05,08,44,19.20
2015,07,05,08,45,19.20
2015,07,05,08,46,19.30
2015,07,05,08,47,19.30
2015,07,05,08,48,19.40
2015,07,05,08,49,19.40
2015,07,05,08,50,19.50
2015,07,05,08,51,19.60
2015,07,05,08,52,19.60
2015,07,05,08,53,19.70
2015,07,05,08,54,19.80
2015,07,05,08,55,19.90
2015,07,05,08,56,20.00
2015,07,05,08,57,20.10
2015,07,05,08,58,20.20
2015,07,05,08,59,20.30
2015,07,05,09,00,20.50
2015,07,05,09,01,20.70
2015,07,05,09,02,20.90
2015,07,05,09,03,21.10
2015,07,05,09,04,21.30
2015,07,05,09,05,21.40
2015,07,05,09,06,21.70
2015,07,05,09,07,22.00
2015,07,05,09,08,22.20
2015,07,05,09,09,22.40
2015,07,05,09,10,22.60
2015,07,05,09,11,22.90
2015,07,05,09,12,23.20
2015,07,05,09,13,23.50
2015,07,05,09,14,23.80
2015,07,05,09,15,24.00
2015,07,05,09,16,24.20
2015,07,05,09,17,24.40
2015,07,05,09,18,24.60
2015,07,05,09,19,24.70
2015,07,05,09,20,24.80
2015,07,05,09,21,24.90
2015,07,05,09,22,25.00
2015,07,05,09,23,25.10
2015,07,05,09,24,25.20
2015,07,05,09,25,25.20
2015,07,05,09,26,25.30
2015,07,05,09,27,25.40
2015,07,05,09,28,25.40
2015,07,05,09,29,25.50
2015,07,05,09,30,25.50
2015,07,05,09,31,25.60
2015,07,05,09,32,25.60
2015,07,05,09,33,25.70
2015,07,05,09,34,25.70
2015,07,05,09,35,25.80
2015,07,05,09,36,25.80
2015,07,05,09,37,25.80
2015,07,05,09,38,25.90
2015,07,05,09,39,25.90
2015,07,05,09,40,26.00
2015,07,05,09,41,26.00
2015,07,05,09,42,26.10
2015,07,05,09,43,26.10
2015,07,05,09,44,26.10
2015,07,05,09,45,26.10
2015,07,05,09,46,26.10
2015,07,05,09,47,26.10
2015,07,05,09,48,26.20
2015,07,05,09,49,26.20
2015,07,05,09,50,26.20
2015,07,05,09,51,26.20
2015,07,05,09,52,26.20
2015,07,05,09,53,26.30
2015,07,05,09,54,26.30
2015,07,05,09,55,26.30
2015,07,05,09,56,26.30
2015,07,05,09,57,26.30
2015,07,05,09,58,26.40
2015,07,05,09,59,26.40
2015,07,05,10,00,26.40
2015,07,05,10,01,26.40
2015,07,05,10,02,26.40
2015,07,05,10,03,26.40
2015,07,05,10,04,26.50
2015,07,05,10,05,26.50
2015,07,05,10,06,26.50
2015,07,05,10,07,26.50
2015,07,05,10,08,26.50
2015,07,05,10,09,26.60
2015,07,05,10,10,26.60
2015,07,05,10,11,26.70
2015,07,05,10,12,26.70
2015,07,05,10,13,26.70
2015,07,05,10,14,26.70
2015,07,05,10,15,26.80
2015,07,05,10,16,26.80
2015,07,05,10,17,26.80
2015,07,05,10,18,26.80
2015,07,05,10,19,26.80
2015,07,05,10,20,26.90
2015,07,05,10,21,26.90
2015,07,05,10,22,26.90
2015,07,05,10,23,26.80
2015,07,05,10,24,26.80
2015,07,05,10,25,26.70
2015,07,05,10,26,26.60
2015,07,05,10,27,26.40
2015,07,05,10,28,26.30
2015,07,05,10,29,26.20
2015,07,05,10,30,26.10
2015,07,05,10,31,26.10
2015,07,05,10,32,26.00
2015,07,05,10,33,26.00
2015,07,05,10,34,25.90
2015,07,05,10,35,25.90
2015,07,05,10,36,25.90
2015,07,05,10,37,25.90
2015,07,05,10,38,25.80
2015,07,05,10,39,25.70
2015,07,05,10,40,25.60
2015,07,05,10,41,25.50
2015,07,05,10,42,25.40
2015,07,05,10,43,25.40
2015,07,05,10,44,25.30
2015,07,05,10,45,25.30
2015,07,05,10,46,25.30
2015,07,05,10,47,25.30
2015,07,05,10,48,25.30
2015,07,05,10,49,25.30
2015,07,05,10,50,25.40
2015,07,05,10,51,25.40
2015,07,05,10,52,25.50
2015,07,05,10,53,25.60
2015,07,05,10,54,25.70
2015,07,05,10,55,25.80
2015,07,05,10,56,25.80
2015,07,05,10,57,25.90
2015,07,05,10,58,26.00
2015,07,05,10,59,26.00
2015,07,05,11,00,26.00
2015,07,05,11,01,26.00
2015,07,05,11,02,26.00
2015,07,05,11,03,26.00
2015,07,05,11,04,26.00
2015,07,05,11,05,25.90
2015,07,05,11,06,25.90
2015,07,05,11,07,26.00
2015,07,05,11,08,25.90
2015,07,05,11,09,25.90
2015,07,05,11,10,25.90
2015,07,05,11,11,25.90
2015,07,05,11,12,25.80
2015,07,05,11,13,25.70
2015,07,05,11,14,25.70
2015,07,05,11,15,25.60
2015,07,05,11,16,25.50
2015,07,05,11,17,25.50
2015,07,05,11,18,25.40
2015,07,05,11,19,25.40
2015,07,05,11,20,25.30
2015,07,05,11,21,25.30
2015,07,05,11,22,25.30
2015,07,05,11,23,25.40
2015,07,05,11,24,25.40
2015,07,05,11,25,25.40
2015,07,05,11,26,25.40
2015,07,05,11,27,25.40
2015,07,05,11,28,25.40
2015,07,05,11,29,25.40
2015,07,05,11,30,25.40
2015,07,05,11,31,25.30
2015,07,05,11,32,25.30
2015,07,05,11,33,25.30
2015,07,05,11,34,25.30
2015,07,05,11,35,25.30
2015,07,05,11,36,25.30
2015,07,05,11,37,25.30
2015,07,05,11,38,25.20
2015,07,05,11,39,25.10
2015,07,05,11,40,25.10
2015,07,05,11,41,25.00
2015,07,05,11,42,25.00
2015,07,05,11,43,24.90
2015,07,05,11,44,24.90
2015,07,05,11,45,24.90
2015,07,05,11,46,25.00
2015,07,05,11,47,25.00
2015,07,05,11,48,25.10
2015,07,05,11,49,25.20
2015,07,05,11,50,25.20
2015,07,05,11,51,25.30
2015,07,05,11,52,25.30
2015,07,05,11,53,25.30
2015,07,05,11,54,25.30
2015,07,05,11,55,25.40
2015,07,05,11,56,25.40
2015,07,05,11,57,25.40
2015,07,05,11,58,25.50
2015,07,05,11,59,25.50
2015,07,05,12,00,25.60
2015,07,05,12,01,25.60
2015,07,05,12,02,25.60
2015,07,05,12,03,25.60
2015,07,05,12,04,25.60
2015,07,05,12,05,25.60
2015,07,05,12,06,25.70
2015,07,05,12,07,25.60
2015,07,05,12,08,25.70
2015,07,05,12,09,25.70
2015,07,05,12,10,25.70
2015,07,05,12,11,25.70
2015,07,05,12,12,25.70
2015,07,05,12,13,25.80
2015,07,05,12,14,25.80
2015,07,05,12,15,25.80
2015,07,05,12,16,25.90
2015,07,05,12,17,25.90
2015,07,05,12,18,26.00
2015,07,05,12,19,26.10
2015,07,05,12,20,26.20
2015,07,05,12,21,26.30
2015,07,05,12,22,26.30
2015,07,05,12,23,26.40
2015,07,05,12,24,26.40
2015,07,05,12,25,26.40
2015,07,05,12,26,26.50
2015,07,05,12,27,26.60
2015,07,05,12,28,26.60
2015,07,05,12,29,26.70
2015,07,05,12,30,26.70
2015,07,05,12,31,26.70
2015,07,05,12,32,26.80
2015,07,05,12,33,26.80
2015,07,05,12,34,26.70
2015,07,05,12,35,26.70
2015,07,05,12,36,26.70
2015,07,05,12,37,26.70
2015,07,05,12,38,26.70
2015,07,05,12,39,26.70
2015,07,05,12,40,26.80
2015,07,05,12,41,26.80
2015,07,05,12,42,26.80
2015,07,05,12,43,26.80
2015,07,05,12,44,26.80
2015,07,05,12,45,26.90
2015,07,05,12,46,26.90
2015,07,05,12,47,27.00
2015,07,05,12,48,27.00
2015,07,05,12,49,27.10
2015,07,05,12,50,27.10
2015,07,05,12,51,27.20
2015,07,05,12,52,27.20
2015,07,05,12,53,27.20
2015,07,05,12,54,27.20
2015,07,05,12,55,27.20
2015,07,05,12,56,27.20
2015,07,05,12,57,27.20
2015,07,05,12,58,27.20
2015,07,05,12,59,27.10
2015,07,05,13,00,27.00
2015,07,05,13,01,27.00
2015,07,05,13,02,26.90
2015,07,05,13,03,26.90
2015,07,05,13,04,26.80
2015,07,05,13,05,26.80
2015,07,05,13,06,26.90
2015,07,05,13,07,27.00
2015,07,05,13,08,27.00
2015,07,05,13,09,27.10
2015,07,05,13,10,27.20
2015,07,05,13,11,27.20
2015,07,05,13,12,27.30
2015,07,05,13,13,27.30
2015,07,05,13,14,27.30
2015,07,05,13,15,27.30
2015,07,05,13,16,27.30
2015,07,05,13,17,27.40
2015,07,05,13,18,27.40
2015,07,05,13,19,27.40
2015,07,05,13,20,27.40
2015,07,05,13,21,27.50
2015,07,05,13,22,27.60
2015,07,05,13,23,27.60
2015,07,05,13,24,27.70
2015,07,05,13,25,27.70
2015,07,05,13,26,27.80
2015,07,05,13,27,27.90
2015,07,05,13,28,28.00
2015,07,05,13,29,28.10
2015,07,05,13,30,28.10
2015,07,05,13,31,28.20
2015,07,05,13,32,28.20
2015,07,05,13,33,28.30
2015,07,05,13,34,28.30
2015,07,05,13,35,28.20
2015,07,05,13,36,28.20
2015,07,05,13,37,28.20
2015,07,05,13,38,28.30
2015,07,05,13,39,28.40
2015,07,05,13,40,28.40
2015,07,05,13,41,28.50
2015,07,05,13,42,28.60
2015,07,05,13,43,28.70
2015,07,05,13,44,28.70
2015,07,05,13,45,28.80
2015,07,05,13,46,28.80
2015,07,05,13,47,28.80
2015,07,05,13,48,28.80
2015,07,05,13,49,28.80
2015,07,05,13,50,28.80
2015,07,05,13,51,28.80
2015,07,05,13,52,28.80
2015,07,05,13,53,28.80
2015,07,05,13,54,28.80
2015,07,05,13,55,28.80
2015,07,05,13,56,28.90
2015,07,05,13,57,28.90
2015,07,05,13,58,28.90
2015,07,05,13,59,28.90
2015,07,05,14,00,28.90
2015,07,05,14,01,28.90
2015,07,05,14,02,28.90
2015,07,05,14,03,28.90
2015,07,05,14,04,28.90
2015,07,05,14,05,28.90
2015,07,05,14,06,28.90
2015,07,05,14,07,28.90
2015,07,05,14,08,29.00
2015,07,05,14,09,29.00
2015,07,05,14,10,29.10
2015,07,05,14,11,29.10
2015,07,05,14,12,29.20
2015,07,05,14,13,29.20
2015,07,05,14,14,29.10
2015,07,05,14,15,29.10
2015,07,05,14,16,29.10
2015,07,05,14,17,29.10
2015,07,05,14,18,29.20
2015,07,05,14,19,29.20
2015,07,05,14,20,29.20
2015,07,05,14,21,29.30
2015,07,05,14,22,29.30
2015,07,05,14,23,29.30
2015,07,05,14,24,29.40
2015,07,05,14,25,29.40
2015,07,05,14,26,29.40
2015,07,05,14,27,29.40
2015,07,05,14,28,29.40
2015,07,05,14,29,29.40
2015,07,05,14,30,29.50
2015,07,05,14,31,29.50
2015,07,05,14,32,29.50
2015,07,05,14,33,29.50
2015,07,05,14,34,29.60
2015,07,05,14,35,29.70
2015,07,05,14,36,29.70
2015,07,05,14,37,29.80
2015,07,05,14,38,29.80
2015,07,05,14,39,29.80
2015,07,05,14,40,29.80
2015,07,05,14,41,29.80
2015,07,05,14,42,29.90
2015,07,05,14,43,30.00
2015,07,05,14,44,30.10
2015,07,05,14,45,30.10
2015,07,05,14,46,30.10
2015,07,05,14,47,30.20
2015,07,05,14,48,30.20
2015,07,05,14,49,30.30
2015,07,05,14,50,30.30
2015,07,05,14,51,30.30
2015,07,05,14,52,30.40
2015,07,05,14,53,30.40
2015,07,05,14,54,30.40
2015,07,05,14,55,30.40
2015,07,05,14,56,30.40
2015,07,05,14,57,30.40
2015,07,05,14,58,30.40
2015,07,05,14,59,30.40
2015,07,05,15,00,30.50
2015,07,05,15,01,30.50
2015,07,05,15,02,30.50
2015,07,05,15,03,30.50
2015,07,05,15,04,30.50
2015,07,05,15,05,30.40
2015,07,05,15,06,30.40
2015,07,05,15,07,30.50
2015,07,05,15,08,30.50
2015,07,05,15,09,30.40
2015,07,05,15,10,30.40
2015,07,05,15,11,30.40
2015,07,05,15,12,30.40
2015,07,05,15,13,30.40
2015,07,05,15,14,30.50
2015,07,05,15,15,30.50
2015,07,05,15,16,30.50
2015,07,05,15,17,30.60
2015,07,05,15,18,30.60
2015,07,05,15,19,30.70
2015,07,05,15,20,30.80
2015,07,05,15,21,30.90
2015,07,05,15,22,30.90
2015,07,05,15,23,31.00
2015,07,05,15,24,31.00
2015,07,05,15,25,31.10
2015,07,05,15,26,31.10
2015,07,05,15,27,31.00
2015,07,05,15,28,30.90
2015,07,05,15,29,30.80
2015,07,05,15,30,30.80
2015,07,05,15,31,30.80
2015,07,05,15,32,30.70
2015,07,05,15,33,30.60
2015,07,05,15,34,30.50
2015,07,05,15,35,30.50
2015,07,05,15,36,30.40
2015,07,05,15,37,30.40
2015,07,05,15,38,30.40
2015,07,05,15,39,30.30
2015,07,05,15,40,30.30
2015,07,05,15,41,30.20
2015,07,05,15,42,30.20
2015,07,05,15,43,30.20
2015,07,05,15,44,30.20
2015,07,05,15,45,30.20
2015,07,05,15,46,30.20
2015,07,05,15,47,30.20
2015,07,05,15,48,30.20
2015,07,05,15,49,30.20
2015,07,05,15,50,30.20
2015,07,05,15,51,30.20
2015,07,05,15,52,30.20
2015,07,05,15,53,30.20
2015,07,05,15,54,30.20
2015,07,05,15,55,30.20
2015,07,05,15,56,30.20
2015,07,05,15,57,30.20
2015,07,05,15,58,30.10
2015,07,05,15,59,30.10
2015,07,05,16,00,30.10
2015,07,05,16,01,30.10
2015,07,05,16,02,30.20
2015,07,05,16,03,30.30
2015,07,05,16,04,30.30
2015,07,05,16,05,30.40
2015,07,05,16,06,30.50
2015,07,05,16,07,30.60
2015,07,05,16,08,30.70
2015,07,05,16,09,30.80
2015,07,05,16,10,30.90
2015,07,05,16,11,31.00
2015,07,05,16,12,31.10
2015,07,05,16,13,31.20
2015,07,05,16,14,31.30
2015,07,05,16,15,31.40
2015,07,05,16,16,31.40
2015,07,05,16,17,31.50
2015,07,05,16,18,31.60
2015,07,05,16,19,31.70
2015,07,05,16,20,31.80
2015,07,05,16,21,31.90
2015,07,05,16,22,32.00
2015,07,05,16,23,32.10
2015,07,05,16,24,32.20
2015,07,05,16,25,32.20
2015,07,05,16,26,32.20
2015,07,05,16,27,32.10
2015,07,05,16,28,32.00
2015,07,05,16,29,31.90
2015,07,05,16,30,31.80
2015,07,05,16,31,31.60
2015,07,05,16,32,31.50
2015,07,05,16,33,31.50
2015,07,05,16,34,31.40
2015,07,05,16,35,31.40
2015,07,05,16,36,31.40
2015,07,05,16,37,31.30
2015,07,05,16,38,31.30
2015,07,05,16,39,31.20
2015,07,05,16,40,31.20
2015,07,05,16,41,31.20
2015,07,05,16,42,31.20
2015,07,05,16,43,31.30
2015,07,05,16,44,31.30
2015,07,05,16,45,31.30
2015,07,05,16,46,31.30
2015,07,05,16,47,31.30
2015,07,05,16,48,31.20
2015,07,05,16,49,31.10
2015,07,05,16,50,31.10
2015,07,05,16,51,31.00
2015,07,05,16,52,31.00
2015,07,05,16,53,30.90
2015,07,05,16,54,30.90
2015,07,05,16,55,30.80
2015,07,05,16,56,30.80
2015,07,05,16,57,30.80
2015,07,05,16,58,30.80
2015,07,05,16,59,30.80
2015,07,05,17,00,30.90
2015,07,05,17,01,30.90
2015,07,05,17,02,31.00
2015,07,05,17,03,31.10
2015,07,05,17,04,31.10
2015,07,05,17,05,31.10
2015,07,05,17,06,31.10
2015,07,05,17,07,31.10
2015,07,05,17,08,31.00
2015,07,05,17,09,31.00
2015,07,05,17,10,31.00
2015,07,05,17,11,31.00
2015,07,05,17,12,31.00
2015,07,05,17,13,31.00
2015,07,05,17,14,31.10
2015,07,05,17,15,31.10
2015,07,05,17,16,31.00
2015,07,05,17,17,31.00
2015,07,05,17,18,31.00
2015,07,05,17,19,30.90